Location: Malvern Link
(52.1333°N, 2.3000°W)
Time: 05:17:24
(UTC+00:00)

Envisat - Pass Details

Date: 24 January 2022
Orbit: 764 x 765 km, 98.2° (Epoch: 25 May)

Event Time Altitude Azimuth Distance (km) Brightness Sun altitude
Rises 03:50:28 0° 25° (NNE) 3,244 6.8 -37.9°
Reaches altitude 10° 03:53:29 10° 44° (NE) 2,312 6.1 -37.5°
Maximum altitude 03:57:01 19° 88° (E) 1,780 5.4 -36.9°
Drops below altitude 10° 04:00:32 10° 132° (SE) 2,301 5.7 -36.4°
Sets 04:03:31 0° 151° (SSE) 3,221 6.4 -36.0°
